Location: ????????
(60.5616°N, 46.8254°E)
Time: 20:17:24
(UTC+00:00)

Cosmos 1725 Rocket - Pass Details

Date: 18 February 2020
Orbit: 963 x 989 km, 82.9° (Epoch: 30 March)

Event Time Altitude Azimuth Distance (km) Brightness Sun altitude
Rises 15:51:04 0° 185° (S) 3,641 7.0 -15.6°
Reaches altitude 10° 15:53:33 10° 184° (S) 2,699 6.3 -15.9°
Maximum altitude 15:59:43 78° 100° (E) 993 3.9 -16.6°
Drops below altitude 10° 16:05:58 10° 15° (NNE) 2,726 6.3 -17.4°
Sets 16:08:29 0° 14° (NNE) 3,680 7.0 -17.7°
